| time (UTC) | temp C | wind direction | speed KPH | gust KPH | rain 1hr cm | rain 24hr cm | rain mn cm | humidity % | barometer mb |
| 20260508014512 | 13 | 317 | 0.0 | 1.6 | 0.00 | 0.03 | 0.00 | 76 | 1007.2 |
| 20260508013016 | 13 | 332 | 0.0 | 3.2 | 0.00 | 0.05 | 0.00 | 76 | 1007.3 |
| 20260508011526 | 13 | 360 | 1.6 | 4.8 | 0.00 | 0.05 | 0.00 | 76 | 1007.4 |
| 20260508010024 | 13 | 304 | 0.0 | 6.4 | 0.00 | 0.08 | 0.00 | 76 | 1007.5 |
| 20260508004518 | 13 | 295 | 0.0 | 3.2 | 0.00 | 0.08 | 0.00 | 77 | 1007.7 |
| 20260508003016 | 13 | 259 | 0.0 | 4.8 | 0.00 | 0.10 | 0.00 | 77 | 1007.7 |
| 20260508001530 | 13 | 287 | 1.6 | 6.4 | 0.00 | 0.10 | 0.00 | 76 | 1008.0 |
| 20260508000022 | 14 | 255 | 0.0 | 3.2 | 0.00 | 0.13 | 0.00 | 75 | 1008.1 |
| 20260507234528 | 14 | 291 | 1.6 | 4.8 | 0.00 | 0.13 | 0.00 | 74 | 1008.4 |
| 20260507233010 | 14 | 323 | 1.6 | 4.8 | 0.00 | 0.13 | 0.00 | 73 | 1008.5 |
| 20260507231516 | 14 | 244 | 1.6 | 6.4 | 0.00 | 0.15 | 0.00 | 73 | 1008.7 |
| 20260507230020 | 14 | 249 | 0.0 | 3.2 | 0.00 | 0.15 | 0.00 | 73 | 1008.9 |
| 20260507224526 | 15 | 275 | 1.6 | 6.4 | 0.00 | 0.15 | 0.00 | 71 | 1009.0 |
| 20260507223026 | 15 | 323 | 1.6 | 6.4 | 0.00 | 0.15 | 0.00 | 70 | 1009.0 |
| 20260507221515 | 15 | 295 | 3.2 | 4.8 | 0.00 | 0.15 | 0.00 | 71 | 1009.0 |
| 20260507220021 | 15 | 288 | 1.6 | 6.4 | 0.00 | 0.15 | 0.00 | 71 | 1009.2 |
| 20260507214522 | 15 | 311 | 1.6 | 4.8 | 0.00 | 0.18 | 0.15 | 71 | 1009.3 |
| 20260507213029 | 15 | 332 | 3.2 | 6.4 | 0.00 | 0.18 | 0.15 | 71 | 1009.2 |
| 20260507211526 | 15 | 297 | 1.6 | 4.8 | 0.00 | 0.18 | 0.15 | 72 | 1009.3 |
| 20260507210018 | 15 | 276 | 1.6 | 4.8 | 0.00 | 0.18 | 0.15 | 71 | 1009.3 |
| 20260507204519 | 15 | 252 | 1.6 | 6.4 | 0.00 | 0.18 | 0.15 | 71 | 1009.2 |
| 20260507203038 | 15 | 293 | 1.6 | 6.4 | 0.00 | 0.18 | 0.15 | 70 | 1009.4 |
| 20260507201510 | 16 | 325 | 1.6 | 6.4 | 0.00 | 0.18 | 0.15 | 70 | 1009.5 |
| 20260507200012 | 16 | 279 | 1.6 | 4.8 | 0.00 | 0.18 | 0.15 | 71 | 1009.6 |
| 20260507194519 | 16 | 316 | 1.6 | 4.8 | 0.00 | 0.18 | 0.15 | 72 | 1009.6 |
| 20260507193018 | 15 | 269 | 0.0 | 3.2 | 0.00 | 0.18 | 0.15 | 74 | 1009.6 |
| 20260507191520 | 15 | 257 | 0.0 | 4.8 | 0.00 | 0.18 | 0.15 | 75 | 1009.5 |
| 20260507190014 | 15 | 215 | 1.6 | 4.8 | 0.00 | 0.18 | 0.15 | 74 | 1009.4 |
| 20260507184522 | 16 | 271 | 3.2 | 4.8 | 0.00 | 0.18 | 0.15 | 74 | 1009.4 |
| 20260507183019 | 16 | 239 | 0.0 | 6.4 | 0.00 | 0.18 | 0.15 | 73 | 1009.3 |
| 20260507181515 | 17 | 300 | 1.6 | 4.8 | 0.00 | 0.18 | 0.15 | 70 | 1009.4 |
| 20260507180021 | 18 | 259 | 0.0 | 1.6 | 0.00 | 0.18 | 0.15 | 66 | 1009.5 |
| 20260507174511 | 19 | 125 | 0.0 | 1.6 | 0.00 | 0.18 | 0.15 | 63 | 1009.6 |
| 20260507173045 | 20 | 125 | 0.0 | 1.6 | 0.00 | 0.18 | 0.15 | 60 | 1009.5 |
| 20260507171524 | 20 | 125 | 0.0 | 3.2 | 0.00 | 0.18 | 0.15 | 58 | 1009.5 |
| 20260507170022 | 20 | 125 | 0.0 | 3.2 | 0.00 | 0.18 | 0.15 | 57 | 1009.4 |
| 20260507164521 | 20 | 151 | 1.6 | 6.4 | 0.00 | 0.18 | 0.15 | 56 | 1009.3 |
| 20260507163016 | 20 | 239 | 0.0 | 4.8 | 0.00 | 0.18 | 0.15 | 55 | 1009.2 |
| 20260507161522 | 21 | 123 | 1.6 | 6.4 | 0.00 | 0.18 | 0.15 | 53 | 1009.4 |
| 20260507160022 | 21 | 116 | 3.2 | 9.7 | 0.00 | 0.18 | 0.15 | 51 | 1009.4 |
| 20260507154520 | 22 | 182 | 1.6 | 8.0 | 0.00 | 0.18 | 0.15 | 47 | 1009.3 |
| 20260507153024 | 22 | 150 | 0.0 | 9.7 | 0.00 | 0.18 | 0.15 | 47 | 1009.1 |
| 20260507151518 | 23 | 117 | 1.6 | 6.4 | 0.00 | 0.18 | 0.15 | 47 | 1009.3 |
| 20260507150034 | 23 | 103 | 1.6 | 6.4 | 0.00 | 0.18 | 0.15 | 50 | 1009.3 |
| 20260507144524 | 22 | 170 | 0.0 | 6.4 | 0.00 | 0.18 | 0.15 | 52 | 1009.3 |
| 20260507143026 | 22 | 142 | 1.6 | 6.4 | 0.00 | 0.18 | 0.15 | 53 | 1009.5 |
| 20260507141528 | 21 | 104 | 0.0 | 6.4 | 0.00 | 0.18 | 0.15 | 52 | 1009.8 |
| 20260507140021 | 21 | 165 | 1.6 | 8.0 | 0.00 | 0.18 | 0.15 | 50 | 1010.0 |
| 20260507134507 | 21 | 125 | 3.2 | 11.3 | 0.00 | 0.18 | 0.15 | 47 | 1010.3 |
| 20260507133014 | 22 | 111 | 1.6 | 6.4 | 0.00 | 0.18 | 0.15 | 46 | 1010.4 |
| 20260507131516 | 22 | 219 | 0.0 | 6.4 | 0.00 | 0.18 | 0.15 | 47 | 1010.6 |
| 20260507130019 | 22 | 88 | 1.6 | 6.4 | 0.00 | 0.18 | 0.15 | 48 | 1010.5 |
| 20260507124527 | 21 | 95 | 1.6 | 6.4 | 0.00 | 0.18 | 0.15 | 50 | 1010.7 |
| 20260507123035 | 21 | 136 | 1.6 | 6.4 | 0.00 | 0.18 | 0.15 | 51 | 1010.8 |
| 20260507121512 | 21 | 106 | 0.0 | 6.4 | 0.00 | 0.18 | 0.15 | 51 | 1011.0 |
| 20260507120018 | 22 | 95 | 3.2 | 6.4 | 0.00 | 0.18 | 0.15 | 54 | 1010.9 |
| 20260507114521 | 21 | 110 | 0.0 | 8.0 | 0.00 | 0.18 | 0.15 | 55 | 1011.0 |
| 20260507113027 | 21 | 146 | 1.6 | 9.7 | 0.00 | 0.18 | 0.15 | 57 | 1011.1 |
| 20260507111527 | 21 | 115 | 1.6 | 8.0 | 0.00 | 0.18 | 0.15 | 57 | 1011.0 |
| 20260507110015 | 21 | 143 | 3.2 | 9.7 | 0.00 | 0.18 | 0.15 | 56 | 1011.1 |
| 20260507104518 | 20 | 119 | 0.0 | 8.0 | 0.00 | 0.18 | 0.15 | 59 | 1011.2 |
| 20260507103029 | 20 | 109 | 0.0 | 6.4 | 0.00 | 0.18 | 0.15 | 61 | 1011.3 |
| 20260507101533 | 20 | 107 | 1.6 | 6.4 | 0.00 | 0.18 | 0.15 | 62 | 1011.4 |
| 20260507100026 | 20 | 129 | 3.2 | 6.4 | 0.00 | 0.18 | 0.15 | 63 | 1011.5 |
| 20260507094515 | 20 | 178 | 0.0 | 9.7 | 0.00 | 0.18 | 0.15 | 58 | 1011.5 |
| 20260507093020 | 20 | 92 | 0.0 | 11.3 | 0.00 | 0.18 | 0.15 | 58 | 1011.2 |
| 20260507091532 | 18 | 49 | 0.0 | 3.2 | 0.00 | 0.18 | 0.15 | 63 | 1011.1 |
| 20260507090025 | 19 | 71 | 0.0 | 6.4 | 0.00 | 0.18 | 0.15 | 65 | 1011.2 |
| 20260507084526 | 18 | 196 | 1.6 | 4.8 | 0.00 | 0.18 | 0.15 | 67 | 1011.3 |
| 20260507083017 | 17 | 59 | 0.0 | 3.2 | 0.00 | 0.18 | 0.15 | 69 | 1011.4 |
| 20260507081523 | 17 | 169 | 0.0 | 8.0 | 0.00 | 0.18 | 0.15 | 71 | 1011.4 |
| 20260507080016 | 16 | 182 | 0.0 | 3.2 | 0.00 | 0.18 | 0.15 | 72 | 1011.6 |
| 20260507080008 | 16 | 192 | 0.0 | 3.2 | 0.00 | 0.18 | 0.15 | 72 | 1011.6 |
| 20260507074509 | 16 | 53 | 0.0 | 4.8 | 0.00 | 0.18 | 0.15 | 75 | 1011.6 |
| 20260507073003 | 15 | 350 | 1.6 | 4.8 | 0.00 | 0.18 | 0.15 | 76 | 1011.7 |
| 20260507071506 | 15 | 72 | 0.0 | 6.4 | 0.00 | 0.20 | 0.15 | 80 | 1011.5 |
| 20260507070009 | 14 | 323 | 0.0 | 6.4 | 0.00 | 0.20 | 0.15 | 83 | 1011.3 |
| 20260507064514 | 13 | 131 | 0.0 | 6.4 | 0.00 | 0.20 | 0.15 | 85 | 1011.1 |
| 20260507063013 | 12 | 155 | 0.0 | 3.2 | 0.00 | 0.23 | 0.15 | 90 | 1010.9 |
| 20260507061504 | 11 | 247 | 0.0 | 1.6 | 0.00 | 0.30 | 0.15 | 90 | 1010.8 |
| 20260507060012 | 11 | 267 | 0.0 | 1.6 | 0.00 | 0.36 | 0.15 | 90 | 1011.1 |
| 20260507054508 | 11 | 187 | 0.0 | 3.2 | 0.00 | 0.36 | 0.15 | 91 | 1011.1 |
| 20260507053012 | 11 | 205 | 0.0 | 3.2 | 0.00 | 0.36 | 0.15 | 91 | 1011.2 |
| 20260507051520 | 11 | 254 | 0.0 | 1.6 | 0.00 | 0.36 | 0.15 | 91 | 1011.1 |
| 20260507050010 | 11 | 279 | 0.0 | 0.0 | 0.03 | 0.38 | 0.15 | 91 | 1011.0 |
| 20260507044508 | 10 | 279 | 0.0 | 1.6 | 0.03 | 0.38 | 0.15 | 91 | 1010.9 |
| 20260507043010 | 10 | 290 | 0.0 | 3.2 | 0.03 | 0.38 | 0.15 | 90 | 1010.8 |
| 20260507041516 | 10 | 209 | 0.0 | 4.8 | 0.03 | 0.38 | 0.15 | 91 | 1010.7 |
| 20260507040022 | 11 | 275 | 0.0 | 3.2 | 0.00 | 0.36 | 0.13 | 90 | 1010.6 |
| 20260507034504 | 11 | 282 | 0.0 | 3.2 | 0.00 | 0.36 | 0.13 | 89 | 1010.7 |
| 20260507033007 | 11 | 266 | 0.0 | 3.2 | 0.00 | 0.36 | 0.13 | 89 | 1010.7 |
| 20260507031513 | 11 | 288 | 0.0 | 3.2 | 0.00 | 0.36 | 0.13 | 89 | 1010.6 |
| 20260507030019 | 11 | 277 | 0.0 | 4.8 | 0.00 | 0.36 | 0.13 | 89 | 1010.6 |
| 20260507024525 | 10 | 250 | 0.0 | 3.2 | 0.00 | 0.36 | 0.13 | 89 | 1010.6 |
| 20260507023006 | 10 | 286 | 1.6 | 4.8 | 0.03 | 0.38 | 0.13 | 88 | 1010.6 |
| 20260507021510 | 10 | 284 | 1.6 | 4.8 | 0.03 | 0.41 | 0.13 | 88 | 1010.5 |
| 20260507020023 | 10 | 292 | 1.6 | 4.8 | 0.05 | 0.46 | 0.13 | 89 | 1010.6 |